Location: Alphen aan den Rijn
(52.1277°N, 4.6689°E)
Time: 01:42:51
(UTC+02:00)

N. Korean satellite - Visible Passes

Search period start: 20 October 2018 00:00
Search period end: 29 October 2018 23:00
Orbit: 459 x 510 km, 97.2° (Epoch: 19 October)

Date Brightness Start Highest point End Pass type
(mag) Time Alt. Az. Time Alt. Az. Time Alt. Az.
20 Oct 10.0 07:09:42 10° NE 07:12:09 17° E 07:14:35 10° SE visible
20 Oct 7.6 19:23:08 10° S 19:26:48 55° W 19:30:30 10° NNW visible
21 Oct 10.4 20:35:10 10° WSW 20:36:21 11° W 20:37:32 10° WNW visible
22 Oct 9.7 20:08:54 10° SW 20:11:39 19° W 20:14:26 10° NW visible
23 Oct 9.2 07:29:21 10° NE 07:32:29 26° E 07:35:34 10° SSE visible
23 Oct 8.7 19:43:38 10° SSW 19:47:03 33° W 19:50:29 10° NNW visible
24 Oct 10.1 07:05:38 10° NE 07:07:50 15° E 07:10:01 10° SE visible
24 Oct 7.3 19:18:50 10° S 19:22:32 61° W 19:26:16 10° NNW visible
25 Oct 10.3 20:30:25 10° WSW 20:32:01 12° W 20:33:37 10° WNW visible
26 Oct 8.1 07:49:14 10° NNE 07:52:44 43° E 07:56:08 10° S visible
26 Oct 9.5 20:04:26 10° SW 20:07:20 21° W 20:10:14 10° NW visible
27 Oct 9.4 07:25:10 10° NE 07:28:09 24° E 07:31:04 10° SSE visible
27 Oct 8.4 19:39:15 10° SSW 19:42:44 36° W 19:46:13 10° NNW visible
28 Oct 10.1 06:01:34 10° ENE 06:03:28 14° E 06:05:20 10° ESE visible
28 Oct 7.1 18:14:30 10° S 18:18:13 67° WSW 18:21:57 10° NNW visible
29 Oct 6.6 17:50:04 10° SSE 17:53:46 66° ENE 17:57:29 10° N visible
29 Oct 10.2 19:25:45 10° WSW 19:27:39 13° W 19:29:32 10° WNW visible
